• Em Portugal
  • Lista de países
  • Para 7 dias
  • Temperatura da água
  • Mapas de satélite
  • Mapa do tempo
  • Widgets de tempo
  • user-avatar
    Iniciar Sessão

    Previsão horária em Jeziorno

    Hoje, 16 Agosto, Quinta-feira

    Tempo Temperatura Precipitação Vento Pressão Humidade
    00:00 +16°C° 0 mm 2 m/s 760 mmHg 91%
    01:00 +16°C° 0 mm 1 m/s 760 mmHg 92%
    02:00 +16°C° 0 mm 1 m/s 760 mmHg 92%
    03:00 +15°C° 0 mm 1 m/s 760 mmHg 93%
    04:00 +15°C° 0 mm 1 m/s 760 mmHg 93%
    05:00 +16°C° 0 mm 1 m/s 760 mmHg 89%
    06:00 +18°C° 0 mm 1 m/s 761 mmHg 84%
    07:00 +20°C° 0 mm 1 m/s 761 mmHg 79%
    08:00 +21°C° 0 mm 1 m/s 761 mmHg 72%
    09:00 +23°C° 0 mm 1 m/s 761 mmHg 65%
    10:00 +24°C° 0 mm 1 m/s 761 mmHg 59%
    11:00 +25°C° 0 mm 1 m/s 761 mmHg 55%
    12:00 +26°C° 0 mm 1 m/s 761 mmHg 51%
    13:00 +27°C° 0 mm 1 m/s 761 mmHg 48%
    14:00 +27°C° 0 mm 1 m/s 760 mmHg 47%
    15:00 +27°C° 0 mm 1 m/s 760 mmHg 47%
    16:00 +27°C° 0 mm 1 m/s 760 mmHg 47%
    17:00 +25°C° 0 mm 1 m/s 760 mmHg 53%
    18:00 +24°C° 0 mm 2 m/s 760 mmHg 58%
    19:00 +23°C° 0 mm 2 m/s 760 mmHg 64%
    20:00 +21°C° 0 mm 2 m/s 760 mmHg 67%
    21:00 +20°C° 0 mm 2 m/s 760 mmHg 69%
    22:00 +19°C° 0 mm 3 m/s 760 mmHg 71%
    23:00 +19°C° 0 mm 3 m/s 760 mmHg 73%

    Amanhã, 17 Agosto, Sexta-feira

    Tempo Temperatura Precipitação Vento Pressão Humidade
    00:00 +19°C° 0 mm 3 m/s 760 mmHg 74%
    01:00 +18°C° 0 mm 3 m/s 760 mmHg 75%
    02:00 +18°C° 0 mm 3 m/s 760 mmHg 76%
    03:00 +18°C° 0 mm 3 m/s 760 mmHg 78%
    04:00 +17°C° 0 mm 3 m/s 760 mmHg 80%
    05:00 +18°C° 0 mm 3 m/s 760 mmHg 77%
    06:00 +20°C° 0 mm 3 m/s 760 mmHg 75%
    07:00 +21°C° 0 mm 3 m/s 760 mmHg 72%
    08:00 +22°C° 0 mm 3 m/s 760 mmHg 66%
    09:00 +25°C° 0 mm 2 m/s 760 mmHg 60%
    10:00 +27°C° 0 mm 2 m/s 760 mmHg 53%
    11:00 +27°C° 0 mm 2 m/s 760 mmHg 52%
    12:00 +27°C° 0 mm 2 m/s 759 mmHg 50%
    13:00 +28°C° 0 mm 2 m/s 759 mmHg 48%
    14:00 +28°C° 0 mm 2 m/s 759 mmHg 50%
    15:00 +27°C° 0 mm 2 m/s 759 mmHg 51%
    16:00 +27°C° 0 mm 2 m/s 758 mmHg 53%
    17:00 +26°C° 0 mm 2 m/s 758 mmHg 56%
    18:00 +25°C° 0 mm 1 m/s 758 mmHg 58%
    19:00 +24°C° 0 mm 1 m/s 758 mmHg 61%
    20:00 +24°C° 0 mm 2 m/s 758 mmHg 62%
    21:00 +24°C° 0 mm 2 m/s 758 mmHg 62%
    22:00 +23°C° 0 mm 2 m/s 758 mmHg 63%
    23:00 +23°C° 0 mm 2 m/s 758 mmHg 65%

    Depois de amanhã, 18 Agosto, Sábado

    Tempo Temperatura Precipitação Vento Pressão Humidade
    00:00 +21°C° 0 mm 2 m/s 758 mmHg 67%
    01:00 +21°C° 0 mm 2 m/s 758 mmHg 68%
    02:00 +20°C° 0 mm 2 m/s 758 mmHg 69%
    03:00 +20°C° 0 mm 2 m/s 758 mmHg 70%
    04:00 +20°C° 0 mm 2 m/s 758 mmHg 71%
    05:00 +20°C° 0 mm 2 m/s 759 mmHg 71%
    06:00 +22°C° 0 mm 1 m/s 759 mmHg 70%
    07:00 +23°C° 0 mm 1 m/s 759 mmHg 70%
    08:00 +24°C° 0,1 mm 1 m/s 759 mmHg 66%
    09:00 +25°C° 0,1 mm 2 m/s 759 mmHg 62%
    10:00 +27°C° 0,1 mm 2 m/s 759 mmHg 58%
    11:00 +27°C° 0,4 mm 2 m/s 759 mmHg 58%
    12:00 +27°C° 0,4 mm 2 m/s 759 mmHg 58%
    13:00 +27°C° 0,4 mm 2 m/s 759 mmHg 58%
    14:00 +27°C° 0,4 mm 2 m/s 759 mmHg 61%
    15:00 +26°C° 0,4 mm 3 m/s 759 mmHg 65%
    16:00 +26°C° 0,4 mm 3 m/s 759 mmHg 68%
    17:00 +24°C° 0,1 mm 3 m/s 759 mmHg 73%
    18:00 +22°C° 0,1 mm 3 m/s 760 mmHg 78%
    19:00 +21°C° 0,1 mm 3 m/s 760 mmHg 83%
    20:00 +20°C° 0 mm 3 m/s 760 mmHg 84%
    21:00 +19°C° 0 mm 3 m/s 760 mmHg 86%
    22:00 +18°C° 0 mm 3 m/s 761 mmHg 87%
    23:00 +17°C° 0 mm 2 m/s 761 mmHg 86%

    19 Agosto, Domingo

    Tempo Temperatura Precipitação Vento Pressão Humidade
    00:00 +16°C° 0 mm 2 m/s 761 mmHg 85%
    01:00 +16°C° 0 mm 2 m/s 761 mmHg 84%
    02:00 +15°C° 0 mm 2 m/s 761 mmHg 83%
    03:00 +15°C° 0 mm 2 m/s 761 mmHg 82%
    04:00 +14°C° 0 mm 2 m/s 761 mmHg 81%
    05:00 +16°C° 0 mm 2 m/s 761 mmHg 77%
    06:00 +17°C° 0 mm 2 m/s 761 mmHg 73%
    07:00 +18°C° 0 mm 3 m/s 761 mmHg 69%
    08:00 +20°C° 0 mm 3 m/s 761 mmHg 64%
    09:00 +22°C° 0 mm 3 m/s 761 mmHg 58%
    10:00 +24°C° 0 mm 3 m/s 761 mmHg 53%
    11:00 +25°C° 0 mm 4 m/s 761 mmHg 52%
    12:00 +26°C° 0 mm 4 m/s 761 mmHg 52%
    13:00 +26°C° 0 mm 4 m/s 761 mmHg 51%
    14:00 +26°C° 0 mm 4 m/s 761 mmHg 54%
    15:00 +26°C° 0 mm 4 m/s 761 mmHg 57%
    16:00 +25°C° 0 mm 4 m/s 761 mmHg 59%
    17:00 +24°C° 0 mm 3 m/s 761 mmHg 66%
    18:00 +22°C° 0 mm 3 m/s 761 mmHg 72%
    19:00 +20°C° 0 mm 2 m/s 761 mmHg 78%
    20:00 +19°C° 0 mm 2 m/s 761 mmHg 82%
    21:00 +19°C° 0 mm 1 m/s 761 mmHg 85%
    22:00 +19°C° 0 mm 1 m/s 761 mmHg 88%
    23:00 +18°C° 0 mm 1 m/s 761 mmHg 89%

    20 Agosto, Segunda-feira

    Tempo Temperatura Precipitação Vento Pressão Humidade
    00:00 +18°C° 0 mm 1 m/s 761 mmHg 90%
    01:00 +18°C° 0 mm 1 m/s 761 mmHg 91%
    02:00 +16°C° 0 mm 1 m/s 760 mmHg 91%
    03:00 +16°C° 0 mm 1 m/s 760 mmHg 91%
    04:00 +16°C° 0 mm 1 m/s 760 mmHg 91%
    05:00 +17°C° 0 mm 2 m/s 760 mmHg 87%
    06:00 +18°C° 0 mm 2 m/s 760 mmHg 83%
    07:00 +19°C° 0 mm 2 m/s 760 mmHg 79%
    08:00 +21°C° 0 mm 2 m/s 760 mmHg 73%
    09:00 +22°C° 0 mm 3 m/s 760 mmHg 68%
    10:00 +25°C° 0 mm 3 m/s 760 mmHg 62%
    11:00 +26°C° 0 mm 3 m/s 759 mmHg 59%
    12:00 +27°C° 0 mm 4 m/s 759 mmHg 55%
    13:00 +28°C° 0 mm 4 m/s 759 mmHg 52%
    14:00 +28°C° 0,3 mm 4 m/s 758 mmHg 53%
    15:00 +28°C° 0,3 mm 3 m/s 758 mmHg 54%
    16:00 +28°C° 0,3 mm 3 m/s 758 mmHg 55%
    17:00 +27°C° 0,2 mm 3 m/s 758 mmHg 58%
    18:00 +26°C° 0,2 mm 2 m/s 758 mmHg 62%
    19:00 +24°C° 0,2 mm 2 m/s 758 mmHg 66%
    20:00 +24°C° 0,1 mm 2 m/s 758 mmHg 68%
    21:00 +23°C° 0,1 mm 2 m/s 758 mmHg 70%
    22:00 +23°C° 0,1 mm 2 m/s 757 mmHg 72%
    23:00 +21°C° 0,1 mm 2 m/s 757 mmHg 74%

    21 Agosto, Terça-feira

    Tempo Temperatura Precipitação Vento Pressão Humidade
    00:00 +21°C° 0,1 mm 2 m/s 757 mmHg 76%
    01:00 +22°C° 0,1 mm 1 m/s 757 mmHg 78%
    02:00 +20°C° 0 mm 2 m/s 757 mmHg 81%
    03:00 +20°C° 0 mm 2 m/s 757 mmHg 84%
    04:00 +19°C° 0 mm 2 m/s 757 mmHg 86%
    05:00 +20°C° 0 mm 3 m/s 757 mmHg 84%
    06:00 +20°C° 0 mm 3 m/s 758 mmHg 82%
    07:00 +21°C° 0 mm 3 m/s 758 mmHg 80%
    08:00 +22°C° 0 mm 4 m/s 758 mmHg 75%
    09:00 +25°C° 0 mm 4 m/s 758 mmHg 70%
    10:00 +26°C° 0 mm 4 m/s 758 mmHg 65%
    11:00 +26°C° 0,1 mm 4 m/s 758 mmHg 62%
    12:00 +27°C° 0,1 mm 4 m/s 758 mmHg 60%
    13:00 +27°C° 0,1 mm 4 m/s 758 mmHg 57%
    14:00 +27°C° 0 mm 4 m/s 758 mmHg 57%
    15:00 +27°C° 0 mm 4 m/s 757 mmHg 57%
    16:00 +27°C° 0 mm 3 m/s 757 mmHg 56%
    17:00 +26°C° 0 mm 2 m/s 757 mmHg 62%
    18:00 +24°C° 0 mm 1 m/s 757 mmHg 67%
    19:00 +23°C° 0 mm 1 m/s 757 mmHg 73%
    20:00 +22°C° 0 mm 1 m/s 757 mmHg 74%
    21:00 +22°C° 0 mm 1 m/s 757 mmHg 76%
    22:00 +20°C° 0 mm 2 m/s 757 mmHg 77%
    23:00 +20°C° 0 mm 2 m/s 757 mmHg 77%
    Mostrar mais